This is the latest recevied weather packets stored in our database for station/object EA3CO-11. If no packets are shown the sender has not sent any weather packets the latest 10 day(s).
| Time | Temp. | Humidity | Pressure | Rain* | Wind** | Luminosity | Snow |
|---|---|---|---|---|---|---|---|
| 1777613543 | 15.56° C | 83% | 1022.9 hPa | - | - | - | - |
| 1777612643 | 15.56° C | 84% | 1022.9 hPa | - | - | - | - |
| 1777611742 | 15° C | 86% | 1022.8 hPa | - | - | - | - |
| 1777610842 | 15° C | 86% | 1022.5 hPa | - | - | - | - |
| 1777609942 | 15° C | 86% | 1022.4 hPa | - | - | - | - |
| 1777609042 | 15° C | 85% | 1022.5 hPa | - | - | - | - |
| 1777608142 | 15° C | 85% | 1022.4 hPa | - | - | - | - |
| 1777607242 | 15° C | 86% | 1022.4 hPa | - | - | - | - |
| 1777606342 | 15° C | 86% | 1022.4 hPa | - | - | - | - |
| 1777605442 | 15.56° C | 87% | 1022.2 hPa | - | - | - | - |
| 1777604541 | 15.56° C | 87% | 1022.2 hPa | - | - | - | - |
| 1777603641 | 15.56° C | 86% | 1022.4 hPa | - | - | - | - |
| 1777602741 | 15.56° C | 84% | 1022.4 hPa | - | - | - | - |
| 1777601841 | 15.56° C | 83% | 1022.3 hPa | - | - | - | - |
| 1777600940 | 15.56° C | 83% | 1022.3 hPa | - | - | - | - |
| 1777600040 | 15.56° C | 82% | 1022.2 hPa | - | - | - | - |
| 1777599140 | 15.56° C | 82% | 1022.1 hPa | - | - | - | - |
| 1777598240 | 16.11° C | 81% | 1022.2 hPa | - | - | - | - |
| 1777597339 | 16.11° C | 81% | 1022.4 hPa | - | - | - | - |
| 1777596439 | 16.11° C | 79% | 1022.5 hPa | - | - | - | - |
| 1777595539 | 16.11° C | 79% | 1022.6 hPa | - | - | - | - |
| 1777594639 | 16.11° C | 78% | 1022.6 hPa | - | - | - | - |
| 1777593739 | 16.11° C | 78% | 1022.6 hPa | - | - | - | - |
| 1777592838 | 16.67° C | 78% | 1022.3 hPa | - | - | - | - |
| 1777591938 | 16.11° C | 79% | 1022.1 hPa | - | - | - | - |
* Rain since midnight (hover to see other rain measurements)
** Current wind speed in m/s (hover to see current wind gust speed)